ANZ660 NZCH-NZQN

Flight info

Callsign ANZ660
Flight time 1h 1m
Altitude 30000
Route GUPUT Y266 ELRUV
Aircraft A320/M-SDE3FGHIRWY/LB1

Departure

Time 2026-04-28 20:19
Airport Christchurch International Airport (NZCH)

Arrival

Time 2026-04-28 21:21
Airport Queenstown Airport (NZQN)
Time Latitude Longitude Altitude Speed Heading
2026-04-28 19:59 -43.48924 172.53722 109 ft 0 kts 130°
2026-04-28 20:07 -43.48923 172.53721 109 ft 1 kts 130°
2026-04-28 20:07 -43.48908 172.53695 108 ft 4 kts 130°
2026-04-28 20:08 -43.48904 172.53690 109 ft 0 kts 130°
2026-04-28 20:10 -43.48906 172.53691 108 ft 1 kts 140°
2026-04-28 20:11 -43.48911 172.53683 107 ft 1 kts 227°
2026-04-28 20:11 -43.48906 172.53676 109 ft 1 kts 301°
2026-04-28 20:11 -43.48881 172.53647 108 ft 9 kts 318°
2026-04-28 20:11 -43.48875 172.53569 108 ft 11 kts 225°
2026-04-28 20:12 -43.48945 172.53501 110 ft 12 kts 219°
2026-04-28 20:12 -43.49013 172.53423 111 ft 15 kts 220°
2026-04-28 20:12 -43.49117 172.53303 112 ft 21 kts 220°
2026-04-28 20:12 -43.49191 172.53217 114 ft 22 kts 220°
2026-04-28 20:13 -43.49350 172.53034 120 ft 22 kts 220°
2026-04-28 20:13 -43.49472 172.52893 126 ft 23 kts 220°
2026-04-28 20:13 -43.49599 172.52746 127 ft 25 kts 220°
2026-04-28 20:13 -43.49740 172.52583 126 ft 24 kts 220°
2026-04-28 20:14 -43.49801 172.52467 127 ft 16 kts 273°
2026-04-28 20:14 -43.49795 172.52404 124 ft 0 kts 277°
2026-04-28 20:17 -43.49790 172.52343 125 ft 18 kts 275°
2026-04-28 20:17 -43.49723 172.52253 123 ft 7 kts 38°
2026-04-28 20:18 -43.49721 172.52256 125 ft 0 kts 38°
2026-04-28 20:18 -43.49720 172.52257 121 ft 2 kts 39°
2026-04-28 20:18 -43.49462 172.52558 123 ft 83 kts 40°
2026-04-28 20:18 -43.48863 172.53250 112 ft 139 kts 40°
2026-04-28 20:19 -43.48027 172.54221 300 ft 167 kts 40°
2026-04-28 20:19 -43.47144 172.55253 1008 ft 167 kts 32°
2026-04-28 20:19 -43.46102 172.56006 1652 ft 170 kts 22°
2026-04-28 20:19 -43.44991 172.56690 2152 ft 184 kts 20°
2026-04-28 20:20 -43.43742 172.57443 2450 ft 207 kts 21°
2026-04-28 20:20 -43.42357 172.58288 2922 ft 224 kts 21°
2026-04-28 20:20 -43.40922 172.59179 3729 ft 228 kts 22°
2026-04-28 20:20 -43.39941 172.59696 4279 ft 228 kts
2026-04-28 20:21 -43.38398 172.59466 4970 ft 226 kts 328°
2026-04-28 20:21 -43.37165 172.57289 6008 ft 223 kts 281°
2026-04-28 20:21 -43.37267 172.55193 6796 ft 225 kts 248°
2026-04-28 20:21 -43.37880 172.53211 7608 ft 227 kts 248°
2026-04-28 20:22 -43.38272 172.51874 8151 ft 228 kts 249°
2026-04-28 20:22 -43.39035 172.49946 8965 ft 233 kts 229°
2026-04-28 20:22 -43.40343 172.48594 9672 ft 245 kts 205°
2026-04-28 20:22 -43.42102 172.48131 10041 ft 272 kts 184°
2026-04-28 20:23 -43.44074 172.48051 10419 ft 293 kts 183°
2026-04-28 20:23 -43.46195 172.47973 10689 ft 317 kts 183°
2026-04-28 20:23 -43.48451 172.47884 10979 ft 336 kts 184°
2026-04-28 20:23 -43.50780 172.47381 11566 ft 342 kts 198°
2026-04-28 20:24 -43.52960 172.46051 12247 ft 345 kts 213°
2026-04-28 20:24 -43.54823 172.43978 12940 ft 346 kts 229°
2026-04-28 20:24 -43.56249 172.41278 13641 ft 348 kts 242°
2026-04-28 20:24 -43.57417 172.38331 14306 ft 352 kts 243°
2026-04-28 20:25 -43.58600 172.35354 14964 ft 355 kts 243°
2026-04-28 20:25 -43.59793 172.32361 15616 ft 357 kts 243°
2026-04-28 20:25 -43.60994 172.29349 16259 ft 360 kts 243°
2026-04-28 20:25 -43.62192 172.26341 16891 ft 362 kts 243°
2026-04-28 20:26 -43.63412 172.23274 17536 ft 365 kts 243°
2026-04-28 20:26 -43.64636 172.20188 18166 ft 368 kts 243°
2026-04-28 20:26 -43.65866 172.17081 18766 ft 371 kts 243°
2026-04-28 20:26 -43.67108 172.13946 19313 ft 374 kts 243°
2026-04-28 20:27 -43.68367 172.10772 19880 ft 377 kts 243°
2026-04-28 20:27 -43.69634 172.07575 20441 ft 380 kts 243°
2026-04-28 20:27 -43.70898 172.04375 20977 ft 383 kts 243°
2026-04-28 20:27 -43.72186 172.01099 21499 ft 386 kts 243°
2026-04-28 20:28 -43.73459 171.97863 21992 ft 390 kts 243°
2026-04-28 20:28 -43.74777 171.94513 22508 ft 393 kts 243°
2026-04-28 20:28 -43.76068 171.91222 23022 ft 395 kts 243°
2026-04-28 20:28 -43.77383 171.87867 23523 ft 398 kts 243°
2026-04-28 20:29 -43.78722 171.84444 23971 ft 401 kts 243°
2026-04-28 20:29 -43.80042 171.81069 24366 ft 404 kts 243°
2026-04-28 20:29 -43.81385 171.77626 24771 ft 407 kts 243°
2026-04-28 20:29 -43.82735 171.74159 25173 ft 410 kts 243°
2026-04-28 20:30 -43.84101 171.70678 25559 ft 413 kts 242°
2026-04-28 20:30 -43.85529 171.67205 25951 ft 416 kts 241°
2026-04-28 20:30 -43.87010 171.63741 26352 ft 419 kts 240°
2026-04-28 20:30 -43.88519 171.60273 26739 ft 421 kts 240°
2026-04-28 20:31 -43.90043 171.56788 27115 ft 424 kts 240°
2026-04-28 20:31 -43.91594 171.53216 27510 ft 427 kts 240°
2026-04-28 20:31 -43.93121 171.49668 27916 ft 429 kts 241°
2026-04-28 20:31 -43.94636 171.46105 28309 ft 431 kts 241°
2026-04-28 20:32 -43.96161 171.42488 28697 ft 434 kts 241°
2026-04-28 20:32 -43.97693 171.38849 29080 ft 437 kts 241°
2026-04-28 20:32 -43.99251 171.35148 29455 ft 440 kts 241°
2026-04-28 20:32 -44.00779 171.31513 29813 ft 442 kts 241°
2026-04-28 20:33 -44.02337 171.27809 30148 ft 445 kts 241°
2026-04-28 20:33 -44.05440 171.20441 30218 ft 431 kts 241°
2026-04-28 20:34 -44.08438 171.13325 30220 ft 429 kts 242°
2026-04-28 20:34 -44.11464 171.06122 30215 ft 428 kts 242°
2026-04-28 20:35 -44.14436 170.99007 30218 ft 428 kts 242°
2026-04-28 20:35 -44.17419 170.91832 30221 ft 428 kts 242°
2026-04-28 20:36 -44.20425 170.84602 30208 ft 429 kts 242°
2026-04-28 20:36 -44.23394 170.77438 30205 ft 430 kts 242°
2026-04-28 20:37 -44.26387 170.70205 30211 ft 431 kts 242°
2026-04-28 20:37 -44.29380 170.62953 30209 ft 431 kts 243°
2026-04-28 20:38 -44.32366 170.55679 30219 ft 432 kts 243°
2026-04-28 20:38 -44.35346 170.48400 30234 ft 431 kts 243°
2026-04-28 20:39 -44.38324 170.41120 30240 ft 431 kts 243°
2026-04-28 20:39 -44.41302 170.33838 30238 ft 431 kts 243°
2026-04-28 20:40 -44.44267 170.26571 30238 ft 430 kts 243°
2026-04-28 20:40 -44.47202 170.19330 30238 ft 430 kts 243°
2026-04-28 20:41 -44.50149 170.12026 30250 ft 429 kts 243°
2026-04-28 20:41 -44.53088 170.04741 30250 ft 429 kts 243°
2026-04-28 20:42 -44.56022 169.97464 30257 ft 428 kts 243°
2026-04-28 20:42 -44.58949 169.90180 30256 ft 427 kts 243°
2026-04-28 20:43 -44.61836 169.82960 30250 ft 427 kts 243°
2026-04-28 20:43 -44.64752 169.75695 30236 ft 426 kts 244°
2026-04-28 20:44 -44.67652 169.68433 30243 ft 425 kts 244°
2026-04-28 20:44 -44.70533 169.61181 30231 ft 424 kts 244°
2026-04-28 20:44 -44.71965 169.57559 29844 ft 423 kts 244°
2026-04-28 20:45 -44.73390 169.53948 29244 ft 418 kts 244°
2026-04-28 20:45 -44.74797 169.50389 28701 ft 413 kts 244°
2026-04-28 20:45 -44.76169 169.46924 28174 ft 408 kts 244°
2026-04-28 20:45 -44.77544 169.43446 27642 ft 403 kts 244°
2026-04-28 20:46 -44.78901 169.40003 27119 ft 399 kts 244°
2026-04-28 20:46 -44.80239 169.36597 26604 ft 395 kts 245°
2026-04-28 20:46 -44.81506 169.33179 26091 ft 389 kts 250°
2026-04-28 20:46 -44.82399 169.29620 25581 ft 383 kts 255°
2026-04-28 20:47 -44.83201 169.26045 25082 ft 381 kts 255°
2026-04-28 20:47 -44.83998 169.22496 24605 ft 378 kts 255°
2026-04-28 20:47 -44.84781 169.19011 24137 ft 377 kts 255°
2026-04-28 20:47 -44.85571 169.15497 23671 ft 375 kts 255°
2026-04-28 20:48 -44.86356 169.12003 23192 ft 372 kts 255°
2026-04-28 20:48 -44.87133 169.08543 22736 ft 368 kts 255°
2026-04-28 20:48 -44.87900 169.05121 22286 ft 364 kts 255°
2026-04-28 20:48 -44.88658 169.01735 21829 ft 361 kts 255°
2026-04-28 20:49 -44.89405 168.98377 21371 ft 357 kts 255°
2026-04-28 20:49 -44.90145 168.95050 20901 ft 353 kts 255°
2026-04-28 20:49 -44.90764 168.91719 20427 ft 348 kts 263°
2026-04-28 20:49 -44.90927 168.88340 19957 ft 343 kts 273°
2026-04-28 20:50 -44.90809 168.85025 19475 ft 340 kts 274°
2026-04-28 20:50 -44.90690 168.81702 18997 ft 337 kts 274°
2026-04-28 20:50 -44.90574 168.78407 18522 ft 336 kts 274°
2026-04-28 20:50 -44.90460 168.75117 17992 ft 334 kts 274°
2026-04-28 20:51 -44.90346 168.71851 17508 ft 332 kts 274°
2026-04-28 20:51 -44.90247 168.68599 17010 ft 330 kts 271°
2026-04-28 20:51 -44.90497 168.65394 16517 ft 329 kts 259°
2026-04-28 20:51 -44.90937 168.63343 16206 ft 329 kts 252°
2026-04-28 20:52 -44.92271 168.59453 15556 ft 327 kts 247°
2026-04-28 20:52 -44.93287 168.56596 15078 ft 324 kts 247°
2026-04-28 20:52 -44.94278 168.53792 14608 ft 322 kts 248°
2026-04-28 20:52 -44.95270 168.50976 14139 ft 321 kts 248°
2026-04-28 20:53 -44.97245 168.45370 12997 ft 316 kts 249°
2026-04-28 20:53 -44.98218 168.42595 12497 ft 313 kts 249°
2026-04-28 20:53 -44.99180 168.39850 12059 ft 309 kts 250°
2026-04-28 20:54 -45.00228 168.37185 11342 ft 317 kts 242°
2026-04-28 20:54 -45.01804 168.34917 10625 ft 331 kts 220°
2026-04-28 20:54 -45.03996 168.33895 10190 ft 336 kts 188°
2026-04-28 20:54 -45.06270 168.34487 10012 ft 330 kts 161°
2026-04-28 20:55 -45.08209 168.36143 9645 ft 325 kts 141°
2026-04-28 20:55 -45.09841 168.38264 9229 ft 311 kts 139°
2026-04-28 20:55 -45.11216 168.40564 8791 ft 305 kts 115°
2026-04-28 20:55 -45.11699 168.43387 8386 ft 290 kts 84°
2026-04-28 20:56 -45.11330 168.46099 7990 ft 275 kts 69°
2026-04-28 20:56 -45.10820 168.48680 7615 ft 268 kts 68°
2026-04-28 20:56 -45.10314 168.51192 7247 ft 262 kts 68°
2026-04-28 20:56 -45.09820 168.53644 6887 ft 256 kts 68°
2026-04-28 20:57 -45.09148 168.55851 6532 ft 237 kts 51°
2026-04-28 20:57 -45.08314 168.57744 6254 ft 216 kts 51°
2026-04-28 20:57 -45.07566 168.59464 5979 ft 194 kts 51°
2026-04-28 20:57 -45.06909 168.60981 5727 ft 170 kts 51°
2026-04-28 20:58 -45.06312 168.62342 5504 ft 159 kts 51°
2026-04-28 20:58 -45.05732 168.63651 5309 ft 156 kts 51°
2026-04-28 20:58 -45.05151 168.64952 4944 ft 156 kts 51°
2026-04-28 20:58 -45.04547 168.66269 4368 ft 163 kts 52°
2026-04-28 20:59 -45.03907 168.67628 3722 ft 169 kts 51°
2026-04-28 20:59 -45.03453 168.68560 3183 ft 172 kts 52°
2026-04-28 20:59 -45.02768 168.69954 2402 ft 175 kts 56°
2026-04-28 20:59 -45.02339 168.71539 1741 ft 174 kts 77°
2026-04-28 21:00 -45.02058 168.73187 1267 ft 163 kts 78°
2026-04-28 21:00 -45.01845 168.74632 1170 ft 134 kts 77°
2026-04-28 21:00 -45.01645 168.75941 1407 ft 151 kts 76°
2026-04-28 21:00 -45.01382 168.77462 2138 ft 163 kts 60°
2026-04-28 21:01 -45.00659 168.78687 2996 ft 166 kts 39°
2026-04-28 21:01 -44.99956 168.80069 3294 ft 189 kts 76°
2026-04-28 21:01 -44.99989 168.81991 3812 ft 200 kts 97°
2026-04-28 21:01 -45.00283 168.83963 4345 ft 210 kts 101°
2026-04-28 21:02 -45.00625 168.86011 4932 ft 216 kts 102°
2026-04-28 21:02 -45.00957 168.88097 5571 ft 220 kts 101°
2026-04-28 21:02 -45.01279 168.90286 6054 ft 238 kts 99°
2026-04-28 21:02 -45.01605 168.92702 6511 ft 260 kts 98°
2026-04-28 21:03 -45.01934 168.95300 7218 ft 270 kts 98°
2026-04-28 21:03 -45.02252 168.97925 8049 ft 276 kts 97°
2026-04-28 21:03 -45.02541 169.00623 8945 ft 279 kts 90°
2026-04-28 21:03 -45.02176 169.03258 9656 ft 273 kts 54°
2026-04-28 21:04 -45.00913 169.05172 9949 ft 255 kts 21°
2026-04-28 21:04 -44.99330 169.06106 10003 ft 248 kts
2026-04-28 21:04 -44.97653 169.06725 10012 ft 246 kts
2026-04-28 21:04 -44.96015 169.07308 10004 ft 246 kts
2026-04-28 21:05 -44.94356 169.07975 10010 ft 248 kts
2026-04-28 21:05 -44.92692 169.08734 10015 ft 248 kts 11°
2026-04-28 21:05 -44.91039 169.09206 10015 ft 237 kts 351°
2026-04-28 21:05 -44.89480 169.08725 10014 ft 226 kts 328°
2026-04-28 21:06 -44.88249 169.07429 10017 ft 227 kts 308°
2026-04-28 21:06 -44.87453 169.05386 10020 ft 247 kts 285°
2026-04-28 21:06 -44.87376 169.02944 10017 ft 256 kts 262°
2026-04-28 21:06 -44.87827 169.00484 10014 ft 259 kts 259°
2026-04-28 21:07 -44.88300 168.98034 10015 ft 259 kts 259°
2026-04-28 21:07 -44.88765 168.95612 10017 ft 260 kts 258°
2026-04-28 21:07 -44.89235 168.93148 10015 ft 260 kts 259°
2026-04-28 21:07 -44.89706 168.90686 10012 ft 260 kts 259°
2026-04-28 21:08 -44.90174 168.88227 10012 ft 258 kts 259°
2026-04-28 21:08 -44.90636 168.85779 10015 ft 258 kts 259°
2026-04-28 21:08 -44.91098 168.83329 10011 ft 259 kts 260°
2026-04-28 21:08 -44.91565 168.80857 10003 ft 260 kts 259°
2026-04-28 21:09 -44.92032 168.78399 10013 ft 259 kts 259°
2026-04-28 21:09 -44.92497 168.75942 9996 ft 258 kts 260°
2026-04-28 21:09 -44.92960 168.73488 10010 ft 260 kts 259°
2026-04-28 21:09 -44.93420 168.71023 10016 ft 260 kts 260°
2026-04-28 21:10 -44.93889 168.68521 10013 ft 260 kts 259°
2026-04-28 21:10 -44.94345 168.66078 10013 ft 260 kts 259°
2026-04-28 21:10 -44.94807 168.63621 10012 ft 259 kts 259°
2026-04-28 21:10 -44.95270 168.61150 10014 ft 259 kts 260°
2026-04-28 21:11 -44.95731 168.58690 10016 ft 259 kts 260°
2026-04-28 21:11 -44.96190 168.56230 10011 ft 260 kts 261°
2026-04-28 21:11 -44.96649 168.53764 10000 ft 259 kts 260°
2026-04-28 21:11 -44.97107 168.51291 10008 ft 260 kts 259°
2026-04-28 21:12 -44.97565 168.48836 10005 ft 259 kts 260°
2026-04-28 21:12 -44.98024 168.46368 9993 ft 259 kts 261°
2026-04-28 21:12 -44.98481 168.43898 10009 ft 261 kts 261°
2026-04-28 21:12 -44.98938 168.41426 10028 ft 259 kts 261°
2026-04-28 21:13 -44.99468 168.39050 9982 ft 251 kts 253°
2026-04-28 21:13 -45.00233 168.36876 9832 ft 243 kts 251°
2026-04-28 21:13 -45.01257 168.34997 9716 ft 246 kts 229°
2026-04-28 21:13 -45.02790 168.33930 9569 ft 250 kts 200°
2026-04-28 21:14 -45.04538 168.33992 9406 ft 258 kts 170°
2026-04-28 21:14 -45.06143 168.35208 9144 ft 265 kts 146°
2026-04-28 21:14 -45.07620 168.36729 8904 ft 256 kts 148°
2026-04-28 21:14 -45.09023 168.38168 8637 ft 245 kts 148°
2026-04-28 21:15 -45.10300 168.39714 8461 ft 238 kts 131°
2026-04-28 21:15 -45.11137 168.41634 8153 ft 230 kts 109°
2026-04-28 21:15 -45.11491 168.43819 7782 ft 222 kts 88°
2026-04-28 21:15 -45.11358 168.45920 7359 ft 215 kts 69°
2026-04-28 21:16 -45.10943 168.47948 6868 ft 213 kts 67°
2026-04-28 21:16 -45.10543 168.49940 6425 ft 206 kts 68°
2026-04-28 21:16 -45.10172 168.51824 6223 ft 194 kts 68°
2026-04-28 21:16 -45.09805 168.53658 6114 ft 192 kts 67°
2026-04-28 21:17 -45.09521 168.54797 6006 ft 173 kts 59°
2026-04-28 21:17 -45.08793 168.56658 5590 ft 157 kts 51°
2026-04-28 21:17 -45.08215 168.57974 5278 ft 154 kts 51°
2026-04-28 21:17 -45.07661 168.59233 4979 ft 152 kts 52°
2026-04-28 21:18 -45.07098 168.60489 4675 ft 150 kts 51°
2026-04-28 21:18 -45.06541 168.61737 4400 ft 150 kts 52°
2026-04-28 21:18 -45.05989 168.62991 4109 ft 149 kts 52°
2026-04-28 21:18 -45.05443 168.64223 3768 ft 147 kts 52°
2026-04-28 21:19 -45.04913 168.65438 3448 ft 144 kts 56°
2026-04-28 21:19 -45.04391 168.66637 3119 ft 142 kts 57°
2026-04-28 21:19 -45.03863 168.67817 2750 ft 141 kts 56°
2026-04-28 21:19 -45.03330 168.69012 2320 ft 145 kts 55°
2026-04-28 21:20 -45.02794 168.70237 1869 ft 148 kts 58°
2026-04-28 21:20 -45.02339 168.71528 1505 ft 144 kts 71°
2026-04-28 21:20 -45.02112 168.72837 1293 ft 131 kts 79°
2026-04-28 21:20 -45.01928 168.74028 1169 ft 112 kts 77°
2026-04-28 21:21 -45.01824 168.74700 1166 ft 26 kts 79°
2026-04-28 21:21 -45.01799 168.74819 1167 ft 8 kts 112°
2026-04-28 21:21 -45.01819 168.74755 1167 ft 14 kts 258°
2026-04-28 21:21 -45.01844 168.74590 1165 ft 19 kts 257°
2026-04-28 21:22 -45.01873 168.74397 1169 ft 21 kts 259°
2026-04-28 21:22 -45.01905 168.74183 1168 ft 23 kts 258°
2026-04-28 21:22 -45.01986 168.74031 1164 ft 18 kts 204°
2026-04-28 21:22 -45.02049 168.74003 1163 ft 14 kts 176°
2026-04-28 21:23 -45.02116 168.74139 1162 ft 15 kts 121°
2026-04-28 21:23 -45.02181 168.74178 1164 ft 7 kts 204°
2026-04-28 21:23 -45.02199 168.74121 1164 ft 0 kts 252°